Waarnemingen

Advertentie
Mijn weer
Fair Isle, Groot Brittannië (3008): temperatuur & dauwpunt: 12.11.2018 16:00:00 - 18.11.2018 16:00:00 (GMT)Fair Isle, Groot Brittannië (3008): temperatuur -20cm & temperatuur -100cm: 12.11.2018 16:00:00 - 18.11.2018 16:00:00 (GMT)Fair Isle, Groot Brittannië (3008): windsnelheid & windstoten: 12.11.2018 16:00:00 - 18.11.2018 16:00:00 (GMT)Fair Isle, Groot Brittannië (3008): windrichting: 12.11.2018 16:00:00 - 18.11.2018 16:00:00 (GMT)Fair Isle, Groot Brittannië (3008): luchtdruk: 12.11.2018 16:00:00 - 18.11.2018 16:00:00 (GMT)Fair Isle, Groot Brittannië (3008): zicht: 12.11.2018 16:00:00 - 18.11.2018 16:00:00 (GMT)Fair Isle, Groot Brittannië (3008): neerslag: 12.11.2018 16:00:00 - 18.11.2018 16:00:00 (GMT)
Datum & Tijd tt [°C] td [°C] tt -20cm [°C] tt -100cm [°C] ff [km/u] ff [kn] fx [km/u] fx [kn] dd ppp [hPa] vv [km] rr [mm]
18.11.2018 16:00:00 8,8 6,8 - - 28 15 - - ZO 1036,4 19 0,0
18.11.2018 15:00:00 9,1 6,9 - - 29 16 - - ZZO 1036,6 15 0,0
18.11.2018 14:00:00 9,2 7,1 - - 28 15 - - ZZO 1036,8 17 0,0
18.11.2018 13:00:00 9,4 7,2 - - 34 18 - - ZZO 1036,4 15 0,0
18.11.2018 12:00:00 9,6 7,6 - - 26 14 - - ZO 1036,7 15 0,0
18.11.2018 11:00:00 9,6 7,7 - - 29 16 - - ZO 1036,6 20 0,0
18.11.2018 10:00:00 9,2 7,2 - - 34 18 - - ZZO 1036,4 16 0,0
18.11.2018 09:00:00 9,0 7,1 9,7 9,5 34 18 48 26 ZZO 1036,3 15 0,0
18.11.2018 08:00:00 9,0 7,2 - - 31 17 50 27 ZO 1036,1 14 0,0
18.11.2018 07:00:00 8,7 6,6 - - 34 18 50 27 ZO 1035,9 17 0,0
18.11.2018 06:00:00 9,0 7,1 - - 31 17 46 25 ZO 1035,9 17 0,0
18.11.2018 05:00:00 9,0 7,2 - - 26 14 46 25 ZO 1036,1 15 0,0
18.11.2018 04:00:00 8,9 7,1 - - 28 15 - - ZO 1036,1 15 0,0
18.11.2018 03:00:00 8,9 7,1 - - 29 16 - - ZO 1035,9 14 0,0
18.11.2018 02:00:00 9,1 7,4 - - 28 15 - - ZZO 1035,6 13 0,0
18.11.2018 01:00:00 9,3 7,7 - - 31 17 - - ZZO 1035,5 13 0,0
18.11.2018 00:00:00 9,5 8,0 - - 29 16 50 27 ZO 1035,5 11 0,0
17.11.2018 23:00:00 9,6 8,1 - - 31 17 50 27 ZO 1035,3 12 0,0
17.11.2018 22:00:00 9,7 8,1 - - 31 17 50 27 ZO 1035,2 12 0,0
17.11.2018 21:00:00 9,6 7,7 - - 35 19 50 27 ZO 1035,2 13 0,0
17.11.2018 20:00:00 9,5 7,7 - - 29 16 48 26 ZO 1034,8 13 0,0
17.11.2018 19:00:00 9,6 7,8 - - 29 16 46 25 ZO 1034,6 12 0,0
17.11.2018 18:00:00 9,6 7,9 - - 34 18 - - ZO 1034,3 13 0,0
17.11.2018 17:00:00 9,3 7,5 - - 28 15 48 26 ZO 1034,1 13 0,0
17.11.2018 16:00:00 9,1 7,3 - - 41 22 54 29 ZZO 1033,7 13 0,0
17.11.2018 15:00:00 9,0 7,4 - - 31 17 54 29 ZO 1033,5 14 0,0
17.11.2018 14:00:00 8,7 7,0 - - 35 19 55 30 ZO 1033,4 14 0,0
17.11.2018 13:00:00 8,8 6,9 - - 34 18 55 30 ZO 1033,6 14 0,0
17.11.2018 12:00:00 8,8 7,5 - - 35 19 54 29 ZO 1033,6 12 0,0
17.11.2018 11:00:00 8,7 8,2 - - 35 19 54 29 ZO 1033,6 10 0,0
17.11.2018 10:00:00 8,6 8,5 - - 34 18 50 27 ZO 1033,4 8 0,0
17.11.2018 09:00:00 8,8 8,8 9,7 9,5 31 17 48 26 ZO 1033,1 2,8 0,0
17.11.2018 08:00:00 9,2 9,0 - - 34 18 48 26 ZO 1032,6 8 0,0
17.11.2018 07:00:00 9,4 9,1 - - 34 18 48 26 ZO 1032,2 5 0,0
17.11.2018 06:00:00 9,7 8,9 - - 31 17 50 27 ZO 1031,8 6 0,0
17.11.2018 05:00:00 9,5 8,5 - - 39 21 50 27 ZZO 1031,5 12 0,0
17.11.2018 04:00:00 9,6 8,9 - - 35 19 48 26 ZZO 1031,5 16 0,0
17.11.2018 03:00:00 9,8 9,8 - - 29 16 46 25 ZO 1031,3 16 0,0
17.11.2018 02:00:00 10,1 10,1 - - 24 13 - - ZO 1031,2 9 0,0
17.11.2018 01:00:00 10,2 10,2 - - 24 13 46 25 ZO 1030,7 6 0,0
17.11.2018 00:00:00 9,7 9,7 - - 31 17 46 25 ZO 1030,3 2,3 0,0
16.11.2018 23:00:00 9,7 9,7 - - 31 17 - - ZZO 1029,9 1,2 0,0
16.11.2018 22:00:00 9,7 9,7 - - 24 13 - - ZZO 1029,5 0,1 0,0
16.11.2018 21:00:00 9,7 9,7 - - 22 12 - - ZZO 1029,2 0,1 0,0
16.11.2018 20:00:00 10,1 10,1 - - 28 15 - - ZZO 1028,3 0,1 0,0
16.11.2018 19:00:00 10,3 10,2 - - 22 12 - - ZZO 1027,6 5 0,0
16.11.2018 18:00:00 10,3 10,1 - - 21 11 - - ZZO 1027,3 5 0,0
16.11.2018 17:00:00 10,1 9,8 - - 21 11 - - ZZO 1026,4 8 0,0
16.11.2018 16:00:00 9,9 9,3 - - 22 12 - - ZZO 1025,7 15 0,0
16.11.2018 15:00:00 9,8 8,8 - - 21 11 - - ZZO 1025,3 15 0,0
16.11.2018 14:00:00 9,9 8,0 - - 16 9 - - Z 1025,1 27 0,0
16.11.2018 13:00:00 10,6 8,6 - - 18 10 - - Z 1024,6 25 0,0
16.11.2018 12:00:00 10,7 8,8 - - 18 10 - - ZZO 1024,6 17 0,0
16.11.2018 11:00:00 10,7 8,4 - - 16 9 - - ZZO 1024,1 16 0,0
16.11.2018 10:00:00 10,1 8,2 - - 15 8 - - Z 1023,5 18 0,0
16.11.2018 09:00:00 9,1 7,8 9,7 9,5 18 10 - - Z 1023,1 20 0,0
16.11.2018 08:00:00 8,9 7,4 - - 16 9 - - ZZW 1022,3 15 0,0
16.11.2018 07:00:00 9,3 8,1 - - 18 10 - - ZZW 1021,2 14 0,0
16.11.2018 06:00:00 9,5 8,2 - - 21 11 - - ZZW 1020,2 13 0,0
16.11.2018 05:00:00 9,6 8,2 - - 21 11 - - ZZW 1019,1 9 0,0
16.11.2018 04:00:00 9,9 8,4 - - 22 12 - - ZZW 1018,4 12 0,0
16.11.2018 03:00:00 10,0 8,2 - - 29 16 - - ZZW 1017,3 17 0,0
16.11.2018 02:00:00 10,1 8,4 - - 29 16 46 25 ZZW 1016,5 16 0,0
16.11.2018 01:00:00 10,1 8,3 - - 34 18 46 25 ZZW 1015,6 17 0,0
16.11.2018 00:00:00 10,6 7,9 - - 34 18 48 26 ZZW 1014,2 17 0,0
15.11.2018 23:00:00 11,1 9,2 - - 34 18 50 27 ZZW 1012,8 12 0,0
15.11.2018 22:00:00 10,9 9,5 - - 39 21 72 39 Z 1011,3 11 0,0
15.11.2018 21:00:00 11,3 9,1 - - 54 29 68 37 Z 1010,3 11 0,0
15.11.2018 20:00:00 11,0 8,7 - - 52 28 72 39 Z 1009,1 11 0,0
15.11.2018 19:00:00 11,0 8,4 - - 41 22 63 34 Z 1008,8 10 0,0
15.11.2018 18:00:00 10,6 9,0 - - 48 26 76 41 ZZO 1008,7 8 0,0
15.11.2018 17:00:00 10,6 9,0 - - 48 26 76 41 ZZO 1008,3 9 0,0
15.11.2018 16:00:00 10,9 8,9 - - 42 23 63 34 ZZO 1008,7 10 0,0
15.11.2018 15:00:00 11,1 9,7 - - 42 23 61 33 ZZO 1008,8 10 0,0
15.11.2018 14:00:00 11,2 9,8 - - 39 21 65 35 ZZO 1009,3 10 0,0
15.11.2018 13:00:00 11,2 10,1 - - 42 23 61 33 Z 1010,3 9 0,0
15.11.2018 12:00:00 11,4 10,5 - - 35 19 48 26 Z 1010,8 10 0,0
15.11.2018 11:00:00 11,5 10,5 - - 28 15 - - Z 1011,1 10 0,0
15.11.2018 10:00:00 11,3 10,5 - - 29 16 - - Z 1011,2 10 0,0
15.11.2018 09:00:00 11,1 10,4 9,7 9,5 21 11 - - Z 1011,1 12 0,0
15.11.2018 08:00:00 11,1 10,4 - - 16 9 - - ZZW 1010,9 11 0,0
15.11.2018 07:00:00 11,1 10,4 - - 22 12 - - Z 1010,6 11 0,0
15.11.2018 06:00:00 11,3 10,3 - - 29 16 48 26 ZZW 1010,0 11 0,0
15.11.2018 05:00:00 11,3 10,4 - - 37 20 50 27 Z 1009,2 11 0,0
15.11.2018 04:00:00 11,3 10,3 - - 34 18 48 26 Z 1008,7 10 0,0
15.11.2018 03:00:00 11,4 10,4 - - 34 18 55 30 Z 1008,1 11 0,0
15.11.2018 02:00:00 11,5 10,5 - - 34 18 54 29 Z 1008,2 11 0,0
15.11.2018 01:00:00 11,6 10,7 - - 41 22 55 30 Z 1007,7 10 0,0
15.11.2018 00:00:00 11,2 10,5 - - 35 19 50 27 Z 1006,9 10 0,0
14.11.2018 23:00:00 11,6 10,8 - - 31 17 - - Z 1007,0 14 0,0
14.11.2018 22:00:00 11,5 10,6 - - 31 17 - - Z 1006,6 15 0,0
14.11.2018 21:00:00 11,9 11,0 - - 29 16 - - Z 1006,3 23 0,0
14.11.2018 20:00:00 11,7 11,2 - - 22 12 - - Z 1006,2 17 0,0
14.11.2018 19:00:00 11,1 10,7 - - 18 10 - - Z 1005,6 11 0,0
14.11.2018 18:00:00 11,0 10,7 - - 21 11 - - Z 1005,4 12 0,0
14.11.2018 17:00:00 10,6 10,4 - - 21 11 - - Z 1005,1 12 0,0
14.11.2018 16:00:00 10,3 10,2 - - 21 11 - - Z 1005,0 9 0,0
14.11.2018 15:00:00 10,3 10,0 - - 22 12 - - Z 1005,3 8 0,0
14.11.2018 14:00:00 10,4 10,0 - - 24 13 - - Z 1005,4 8 0,0
14.11.2018 13:00:00 10,5 10,0 - - 28 15 - - Z 1005,9 9 0,0
14.11.2018 12:00:00 10,4 9,8 - - 31 17 48 26 Z 1006,2 8 0,0
14.11.2018 11:00:00 10,4 9,8 - - 35 19 52 28 Z 1006,4 9 0,0
14.11.2018 10:00:00 10,4 9,6 - - 37 20 48 26 Z 1006,5 10 0,0
14.11.2018 09:00:00 10,4 9,7 9,5 9,5 35 19 54 29 Z 1006,8 9 0,0
14.11.2018 08:00:00 10,3 9,6 - - 35 19 55 30 Z 1006,3 8 0,0
14.11.2018 07:00:00 10,4 9,4 - - 39 21 54 29 Z 1006,5 11 0,0
14.11.2018 06:00:00 10,4 9,2 - - 35 19 48 26 Z 1006,4 13 0,0
14.11.2018 05:00:00 10,2 8,9 - - 35 19 48 26 Z 1006,8 14 0,2
14.11.2018 04:00:00 9,8 8,8 - - 34 18 48 26 Z 1007,2 13 0,0
14.11.2018 03:00:00 9,4 8,1 - - 35 19 48 26 Z 1007,3 14 0,6
14.11.2018 02:00:00 9,5 7,9 - - 39 21 54 29 Z 1008,3 12 0,0
14.11.2018 01:00:00 9,5 7,6 - - 35 19 55 30 Z 1008,6 19 0,2
14.11.2018 00:00:00 9,8 7,1 - - 39 21 54 29 Z 1008,8 18 0,0
13.11.2018 23:00:00 9,3 6,9 - - 31 17 - - Z 1009,2 24 0,0
13.11.2018 22:00:00 9,2 7,6 - - 31 17 - - Z 1009,8 30 0,0
13.11.2018 21:00:00 9,0 7,0 - - 26 14 - - Z 1009,7 35 0,0
13.11.2018 20:00:00 9,1 7,1 - - 22 12 - - ZZW 1010,1 27 0,0
13.11.2018 19:00:00 8,8 7,0 - - 21 11 - - ZW 1009,8 22 0,0
13.11.2018 18:00:00 9,1 7,5 - - 26 14 - - WZW 1009,4 35 0,0
13.11.2018 17:00:00 9,0 8,1 - - 31 17 - - WZW 1008,7 30 0,2
13.11.2018 16:00:00 9,4 8,5 - - 26 14 - - WZW 1007,8 4,2 0,2
13.11.2018 15:00:00 9,8 8,4 - - 26 14 - - WZW 1007,0 20 0,0
13.11.2018 14:00:00 9,8 8,3 - - 31 17 - - ZW 1006,3 30 0,0
13.11.2018 13:00:00 10,0 7,9 - - 26 14 - - WZW 1005,5 30 0,0
13.11.2018 12:00:00 9,9 8,5 - - 21 11 - - WZW 1004,7 35 0,0
13.11.2018 11:00:00 9,6 7,7 - - 21 11 - - WZW 1004,0 35 0,0
13.11.2018 10:00:00 9,5 8,6 - - 21 11 - - WZW 1003,1 30 0,0
13.11.2018 09:00:00 8,6 7,7 9,5 9,5 15 8 - - WZW 1002,2 40 0,0
13.11.2018 08:00:00 8,6 7,2 - - 15 8 - - ZW 1001,3 28 0,0
13.11.2018 07:00:00 8,9 7,6 - - 16 9 - - ZW 1000,6 20 0,0
13.11.2018 06:00:00 9,1 8,2 - - 16 9 - - ZZW 1000,1 18 0,0
13.11.2018 05:00:00 8,8 7,8 - - 16 9 - - Z 999,6 18 0,0
13.11.2018 04:00:00 9,3 8,2 - - 22 12 - - Z 999,2 18 0,0
13.11.2018 03:00:00 9,5 8,4 - - 22 12 - - Z 999,1 16 0,0
13.11.2018 02:00:00 9,4 8,0 - - 24 13 - - Z 999,2 19 0,0
13.11.2018 01:00:00 9,7 8,3 - - 21 11 - - Z 999,0 16 0,0
13.11.2018 00:00:00 9,7 8,4 - - 26 14 - - Z 999,0 14 0,0
12.11.2018 23:00:00 9,8 8,5 - - 28 15 - - Z 998,9 15 0,0
12.11.2018 22:00:00 10,0 8,7 - - 31 17 - - Z 999,0 14 0,0
12.11.2018 21:00:00 10,0 8,8 - - 29 16 46 25 Z 999,2 14 0,0
12.11.2018 20:00:00 9,9 8,9 - - 31 17 - - Z 999,2 12 0,0
12.11.2018 19:00:00 9,7 8,5 - - 34 18 46 25 Z 999,2 12 0,0
12.11.2018 18:00:00 9,6 8,4 - - 35 19 46 25 Z 999,1 14 0,0
12.11.2018 17:00:00 9,7 8,7 - - 34 18 46 25 Z 998,9 13 0,0
12.11.2018 16:00:00 9,8 8,9 - - 34 18 - - Z 998,7 12 0,0

tt = temperatuur
td = dauwpunt
tt -20cm = temperatuur -20cm
tt -100cm = temperatuur -100cm
ff = windsnelheid
fx = windstoten
dd = windrichting
ppp = luchtdruk
vv = zicht
rr = neerslag

Weerstations in de omgeving